FREGAT R/B, 44454

Orbit data source: Space-Track

FREGAT R/B, 44454 is space debris in HEO originally from a launch on Tue, 30 Jul 2019 UTC launched from the Plesetsk Missile And Space Complex (PKMTR). Debris objects in space refer to the collection of defunct objects orbiting the Earth. Examples of debris include non-operational satellites, rocket bodies, and fragments generated from explosions, collisions, or faulty payload assembly.

Loading next visibility...
FREGAT R/B details
Identifier
44454, 2019-046B
Orbit
HEO
Last TLE update1 day ago
Origin
Flag of CISLavochkin (CIS)
ManufacturerLavochkin
MissionSpacecraft
Bus & MotorFREGAT, Unknown motor
Mass1,000 kg wet, 1,000 kg dry
Launch date (UTC)
2019-07-30 (5 years ago)
Launch vehicleUnknown
Launch site
Plesetsk Missile And Space Complex (PKMTR)
Object type
Payload
Rocket body
Debris
Shape & HBRIrr, 3.48 m
Radar Cross Section12.110 m², Large (>1 m²)

Expand to show TLE details & history

TLE from 1 day ago
0 FREGAT R/B
1 44454U 19046B   24360.41520445  .00001244  00000-0  00000-0 0  9992
2 44454  62.7734 105.2735 6978022 275.5073  15.2555  2.00252684 39631
Epoch: 2024-12-25T09:57Z
Definitive object data (Epoch: 2024-12-25T09:57:53.664Z)
Latitude-0.00001°
Longitude-138.61716°
Altitude6,442.038 km
Speed6.87 km/s
True Right ascension07h 01m 03s
True Declination0° 00' 00"
Sunlit
Object was in full shadow at TLE epoch
Visualization TLE readout
Latitude62.79728°
Longitude-50.32254°
Altitude38,147.974 km
Speed1.708 km/s
Apparent Right ascension12h 34m 46s
Apparent Declination66° 08' 24"
Sunlit
Object is in daylight
Visualization observer readout
Local Sidereal Time13:57:22
Azimuth342.721° N
Elevation61.3°
Doppler factor1
Orbital elements
Apogee altitude38,761.349 km
Perigee altitude1,656.399 km
Semi-major axis26,587.011 km
Eccentricity0.6978022
Inclination62.7734°
RAAN105.2735°
Arg. of periapsis275.5073°
True anomaly84.62071°
Mean anomaly15.2555°
Eccentric anomaly42.01681°
Mean motion0.50066 °/min
BSTARUnknown
Orbital period719.06 mins
Loading maneuver chart data...
Loading historical data...
Loading historical data...
Loading historical data...
Loading historical data...
Loading historical data...
Loading historical data...
Loading historical data...
Other satellites on launch #46 in the year 2019 (2019-07-30 UTC)

FREGAT R/B Visibility forecast

Observer location: undefined°, undefined

Span
Click to sort rows by Start time (UTC) header in descending order
Start Az.
Max El. time (UTC)
Max El. Az.
Max El.
End time (UTC)
End Az.
378 mins2024-12-26 14:35:29.984Z342.712° N2024-12-26 18:51:29.984Z297.649° NW43.35°2024-12-26 20:53:29.984Z198.397° SSW
280 mins2024-12-27 09:55:29.984Z227.994° WSW2024-12-27 11:19:29.984Z299.673° NW42.634°2024-12-27 14:35:29.984Z342.176° N
|